Theta_e
288 288 286 286 286 286 285 283 285 283 282 281 280 281 281 280 282 283 282 283 282 283 283 285 284 284 286 288 290 286 283 283 283 284 284 284 284 284 283 284 284 284 284 285 285 285 284 283 283 283 282 282 282 282 281 281 282 282 284 285 283 283 283 284 283 282 282 281 281 281 280 280 280 281 282 282 281 281 281 282 281 281 281 280 280 281
289 287 285 288 288 286 285 281 280 282 282 283 282 280 282 280 281 285 284 283 281 284 281 280 280 283 285 288 289 286 283 283 283 284 284 284 284 284 284 284 284 284 283 284 283 283 283 283 282 282 281 283 281 281 280 282 283 282 281 282 283 283 283 283 282 283 284 281 281 280 280 280 280 280 279 280 280 281 282 281 281 280 280 280 279 280
285 285 286 283 284 281 279 280 281 284 282 281 283 280 280 282 281 284 282 281 283 282 282 282 282 285 287 288 290 290 288 289 288 286 287 286 285 285 285 284 284 283 283 284 284 283 282 282 282 282 282 282 282 282 282 281 281 281 281 282 282 283 283 283 283 283 281 281 282 281 280 280 279 280 281 281 281 281 281 280 280 280 280 280 279 279
287 282 285 284 282 283 281 280 281 281 281 280 279 281 282 281 282 282 281 281 281 283 283 284 282 284 287 288 289 291 290 289 290 288 287 287 286 286 285 285 285 284 283 283 284 283 282 282 282 281 281 281 281 282 281 280 281 281 283 282 282 283 282 282 283 286 282 282 282 282 281 281 280 280 282 282 281 279 279 278 279 279 279 279 279 279
287 288 282 281 282 284 283 283 282 282 283 280 281 280 281 282 282 282 281 281 281 281 280 282 285 285 285 285 287 284 282 285 288 286 285 286 287 287 286 286 286 285 284 284 283 282 281 281 281 281 281 281 281 281 281 281 281 282 282 283 282 282 282 282 284 284 282 282 281 280 280 281 280 280 280 278 277 278 279 280 278 278 278 278 278 278
287 285 282 284 283 284 284 283 282 283 280 277 279 284 284 283 282 280 279 281 279 277 280 281 282 278 277 282 284 286 283 285 284 284 285 285 285 285 285 285 285 286 285 284 284 283 282 282 281 281 281 280 281 281 281 281 282 282 282 281 281 281 282 282 281 281 282 282 280 278 278 277 277 277 277 277 277 278 278 277 278 278 278 278 278 278
287 283 283 285 283 283 284 282 279 284 280 281 282 281 282 282 282 281 280 281 276 276 280 279 278 279 280 285 284 284 282 285 287 284 286 284 284 284 285 286 285 284 284 284 284 283 282 281 281 281 280 281 281 281 281 280 280 280 281 281 281 282 282 282 281 281 283 279 279 278 277 277 277 276 277 277 277 277 278 278 277 278 278 278 277 277
283 283 282 282 283 282 282 281 281 284 282 280 281 279 281 281 282 279 280 281 279 278 279 279 281 279 279 282 288 289 286 287 287 288 287 286 284 284 285 285 285 284 284 284 283 283 282 281 281 281 280 280 282 282 280 281 280 280 281 281 281 281 283 282 281 280 281 280 279 278 277 279 278 277 277 277 277 278 279 277 277 277 277 277 277 277
283 282 282 282 282 280 282 281 281 284 283 280 281 279 279 281 280 278 280 278 277 276 277 276 280 276 275 276 277 281 282 283 285 287 288 287 285 284 285 285 285 284 284 284 283 282 282 281 281 281 281 281 281 281 281 281 281 281 280 281 280 281 280 281 280 282 280 281 280 278 277 276 278 278 278 278 279 277 277 275 276 276 276 276 276 276
285 284 282 284 282 282 281 279 280 285 284 283 280 280 279 279 279 278 276 279 274 273 279 277 278 274 281 279 280 279 280 281 284 287 288 287 286 284 284 284 284 283 283 283 283 283 282 282 281 281 281 280 280 281 282 281 280 280 279 280 281 280 279 280 279 279 278 278 279 277 277 276 276 277 277 276 276 276 275 275 275 275 275 275 275 275
284 285 285 284 284 283 280 280 281 282 282 282 281 281 280 277 276 275 274 273 273 272 280 281 279 280 277 279 280 281 281 282 285 284 284 283 282 282 283 283 283 283 283 282 282 282 282 281 281 280 280 280 280 280 280 280 280 279 279 279 279 279 279 279 279 278 278 278 277 277 276 276 276 276 276 275 275 275 275 274 274 274 275 275 275 275
282 284 284 282 283 282 281 282 281 280 280 281 281 279 282 281 275 270 264 269 270 274 275 275 278 280 274 278 280 282 281 281 286 286 286 286 286 284 282 282 283 283 282 281 280 280 281 279 280 279 280 280 280 279 279 279 279 279 279 279 279 279 278 278 278 278 278 277 277 277 276 276 276 275 275 274 274 274 274 274 274 274 274 274 274 274
281 282 282 284 285 284 281 281 282 280 281 281 279 276 275 271 271 272 266 270 268 274 274 272 276 275 277 283 280 281 284 285 282 285 288 288 287 283 280 282 282 282 281 281 280 280 280 280 279 279 280 279 279 280 280 280 279 278 278 278 279 278 278 277 277 277 277 276 276 276 276 275 277 276 275 274 274 274 273 273 273 273 273 273 273 273
282 279 281 284 284 285 285 283 278 280 280 280 281 275 272 270 269 268 268 263 268 272 273 277 276 276 282 282 287 288 289 288 286 284 285 285 285 284 281 281 281 281 281 281 280 280 280 281 280 280 280 280 280 280 280 279 279 278 279 278 278 278 277 277 277 276 276 276 276 276 275 275 275 274 274 274 274 274 274 274 273 273 272 272 272 272
275 281 281 283 282 284 287 288 285 280 279 281 279 282 279 271 266 268 265 271 276 274 273 274 273 274 274 279 280 286 289 289 287 287 283 279 280 280 280 280 280 279 279 280 280 280 280 280 280 280 280 280 280 280 279 278 278 278 278 278 278 277 276 276 276 276 276 276 275 275 275 275 274 274 274 274 275 274 273 273 272 272 272 272 272 272
281 282 280 283 281 284 285 283 281 281 280 279 278 280 276 279 277 276 270 266 269 272 274 269 276 275 281 282 282 278 278 281 280 281 280 280 279 279 279 280 280 279 279 279 280 280 280 280 279 280 280 280 279 279 279 278 278 278 278 277 277 276 276 276 277 276 275 275 275 274 274 274 274 275 274 274 274 273 273 272 272 272 272 272 272 272
279 277 280 282 281 282 282 281 284 283 280 280 280 277 279 280 282 274 271 268 268 266 276 268 275 280 280 286 285 285 280 283 279 279 279 279 278 278 280 280 279 279 279 279 279 280 279 279 279 280 279 279 279 279 278 278 278 278 278 277 276 276 275 275 276 275 274 274 274 274 273 273 273 272 272 272 272 272 272 272 272 271 271 272 272 272
282 282 281 282 283 282 279 280 281 279 282 280 274 279 280 280 279 277 272 269 263 266 274 268 277 279 277 279 277 278 280 280 281 282 282 277 277 277 280 280 279 279 279 279 279 279 279 279 279 279 279 279 279 279 278 278 277 277 277 276 276 276 275 275 275 274 274 273 273 273 273 272 272 272 272 272 271 271 271 271 271 271 271 271 271 272
286 282 282 278 280 282 280 282 284 282 281 279 277 281 281 275 275 274 268 269 266 266 268 273 275 278 280 281 283 278 278 280 280 282 279 278 277 278 280 280 279 278 278 278 278 279 279 279 279 279 279 279 279 279 278 277 277 276 276 276 275 275 275 275 275 274 274 274 273 274 273 272 272 272 271 271 271 271 270 270 270 270 270 271 271 272
286 283 281 280 280 281 281 282 278 279 281 280 281 280 279 278 271 271 276 268 270 269 265 275 277 277 280 281 281 283 279 280 282 280 279 280 280 280 280 280 279 278 278 279 279 279 279 279 279 278 278 278 277 277 277 277 276 276 275 276 275 275 275 274 273 273 272 272 272 272 272 271 271 271 271 270 270 270 269 270 270 270 270 270 271 271
285 282 281 281 280 282 280 281 282 282 278 278 279 276 275 275 277 275 273 272 272 267 269 267 273 279 283 285 285 285 282 281 283 284 281 280 280 280 280 280 279 279 279 279 279 279 279 278 278 278 278 278 277 277 277 276 276 275 275 274 275 274 273 273 273 272 272 272 271 271 270 270 270 270 270 269 269 269 269 269 270 270 270 271 270 271
283 281 282 281 278 279 282 281 283 283 285 283 282 280 280 276 272 270 274 272 268 273 269 267 274 280 286 284 286 284 283 282 283 285 284 281 280 280 280 280 279 279 279 279 279 279 278 278 277 277 277 276 276 276 276 276 275 274 274 274 273 273 272 272 272 271 271 270 271 270 270 269 269 269 269 269 269 269 269 269 269 270 270 270 270 270
285 280 280 278 281 282 280 281 277 279 280 281 282 281 283 281 278 273 274 275 267 274 271 269 267 279 284 282 282 283 282 282 284 283 283 282 280 279 280 280 279 279 279 279 279 279 278 278 278 277 276 276 276 276 275 274 274 274 273 273 273 272 272 272 271 271 270 270 269 269 269 269 268 268 268 268 268 268 269 269 269 270 269 269 270 270
290 279 278 283 281 277 279 278 278 278 281 282 281 278 279 280 281 282 282 277 273 270 273 268 271 279 285 279 281 281 279 279 278 278 281 281 280 279 279 278 278 278 278 278 278 278 278 277 277 276 276 276 276 275 275 274 274 274 273 273 272 271 271 270 270 270 269 269 268 268 268 268 268 268 268 268 268 268 268 269 269 269 269 269 269 268
282 282 280 276 273 276 275 277 279 279 279 278 280 280 281 283 282 277 275 274 273 278 273 274 272 279 281 274 278 276 278 279 279 277 278 280 280 279 278 278 278 278 277 277 277 277 277 276 276 277 276 276 276 275 274 274 273 273 272 272 271 271 270 270 269 269 268 268 267 267 267 267 267 267 267 267 267 267 268 268 268 268 267 267 267 267
285 281 281 275 275 273 273 273 274 274 278 278 276 277 280 281 281 276 276 275 275 279 275 276 277 284 289 286 279 279 277 280 280 277 277 278 279 279 278 278 277 277 277 277 277 277 277 277 276 276 276 276 275 274 273 273 272 272 271 271 270 269 269 269 268 268 267 267 266 266 266 266 266 267 267 267 267 267 267 267 267 266 266 266 265 265
281 281 284 284 281 279 281 282 279 279 277 276 277 279 280 280 282 282 279 275 276 278 276 280 282 283 284 287 287 288 287 282 285 283 278 279 278 277 277 277 277 277 277 277 277 277 277 275 275 276 275 275 274 273 273 271 270 270 270 269 269 268 268 267 267 266 266 266 266 265 266 266 266 266 266 266 267 267 266 266 265 265 265 265 264 264
278 281 283 284 284 285 285 285 281 282 279 280 280 279 281 281 280 279 278 277 281 274 276 282 283 281 282 286 287 288 289 289 290 289 287 282 280 279 278 278 280 276 277 277 277 276 276 276 275 275 274 274 274 272 271 270 269 268 267 267 267 267 266 266 265 265 264 265 265 265 265 266 266 266 266 266 266 266 265 265 264 264 264 264 263 263
282 282 286 284 283 285 286 286 283 279 282 282 281 281 280 280 279 277 278 281 282 279 277 283 284 282 284 286 288 289 289 290 290 290 289 285 282 279 277 276 277 276 277 276 277 277 276 276 275 275 274 274 272 271 269 268 267 267 266 266 266 266 265 265 264 264 264 264 264 264 265 266 266 266 266 265 265 264 264 263 263 263 263 263 262 263
281 283 285 285 283 284 284 284 284 282 282 283 283 282 282 280 279 280 280 282 281 281 283 284 284 283 287 288 290 291 292 291 291 291 284 281 280 279 277 277 277 276 276 276 277 277 277 276 275 275 274 272 271 270 268 267 267 266 266 266 265 265 265 264 264 263 263 263 264 264 265 265 265 265 264 263 263 263 262 262 262 262 262 262 262 262
284 283 289 285 283 283 285 285 283 283 283 282 284 285 284 284 282 281 281 281 281 281 283 283 282 283 288 291 290 292 292 290 289 288 288 288 285 280 278 278 277 277 277 277 277 277 276 275 275 274 273 272 270 269 267 267 266 266 265 265 264 264 264 264 263 263 263 263 264 264 264 264 263 263 262 262 262 261 261 261 261 261 261 261 262 262
284 279 279 278 281 281 285 284 282 283 281 281 282 283 284 283 281 283 282 282 280 279 281 281 279 281 287 290 290 290 289 288 288 288 288 288 287 282 279 279 278 277 277 277 277 276 275 275 274 273 272 271 269 268 267 266 266 265 265 264 264 264 263 263 263 262 262 263 263 263 263 262 262 261 261 260 260 260 260 260 260 260 261 261 261 263
282 279 281 281 279 279 283 278 279 280 280 278 280 283 284 285 285 286 286 285 283 284 280 279 281 286 288 289 288 288 288 288 288 288 288 287 285 282 281 280 279 278 278 277 277 276 276 275 274 273 272 270 268 267 267 266 265 264 264 263 263 263 262 262 262 262 262 262 262 262 261 261 260 259 259 259 259 259 259 259 260 260 260 261 262 263
277 281 282 283 278 280 279 277 279 278 274 276 287 287 288 285 285 283 283 285 286 285 284 286 287 289 289 289 288 288 288 289 290 290 288 288 286 282 280 280 280 279 278 278 277 277 276 275 274 272 271 269 268 267 266 265 264 264 263 263 263 262 262 261 261 261 261 261 261 260 260 260 259 258 258 259 259 259 259 259 259 260 261 262 263 263
281 281 281 283 277 279 277 278 275 272 275 286 287 287 286 287 286 285 286 287 287 288 287 287 287 288 289 290 290 290 290 291 291 290 283 284 285 284 282 280 279 278 278 277 276 276 275 274 273 270 268 267 266 265 264 264 263 263 262 262 261 261 261 260 260 260 260 260 260 259 258 258 258 258 258 258 258 258 258 259 260 261 262 262 262 262
282 281 281 280 280 275 274 276 272 273 284 287 288 288 282 284 283 284 283 286 287 288 288 287 288 289 290 290 291 291 291 290 287 284 282 282 283 284 282 280 279 278 277 277 277 276 275 274 271 269 267 267 265 264 263 263 263 261 261 261 261 260 260 259 258 259 259 258 258 258 258 257 257 257 257 258 258 258 258 259 260 261 262 262 262 262
286 284 283 280 284 277 278 278 277 283 283 285 285 287 285 283 279 282 281 284 289 289 288 287 288 289 289 289 290 290 285 282 284 288 281 282 282 282 283 282 280 279 279 278 278 276 275 273 270 268 266 265 264 263 262 262 261 260 260 259 258 258 258 259 257 258 258 257 257 257 257 257 257 256 257 257 257 257 258 259 260 261 261 261 261 261
287 284 284 281 280 284 278 277 277 277 274 280 287 285 287 287 287 287 285 284 290 291 289 287 287 288 288 288 288 285 279 281 282 285 287 284 282 280 279 279 278 278 278 276 275 273 271 269 267 266 264 263 262 262 262 261 260 259 259 258 258 257 258 257 257 257 257 257 257 257 257 257 256 256 256 256 256 257 259 259 260 260 261 260 260 260
285 287 286 283 280 282 279 276 275 274 277 285 287 283 283 284 286 284 282 280 289 288 287 289 288 288 288 287 286 280 279 277 281 285 287 279 279 279 278 277 277 277 276 274 272 269 267 266 265 264 263 262 261 261 261 260 259 258 258 258 257 258 256 257 256 256 256 256 257 256 256 256 256 256 256 256 257 258 258 259 259 260 260 260 260 260
282 282 282 280 279 280 279 277 275 280 279 286 284 278 280 284 287 285 274 278 289 286 288 287 288 288 287 287 283 281 281 279 281 286 280 278 279 278 277 276 275 274 273 272 270 268 265 265 263 262 261 261 261 261 260 259 259 258 258 258 258 257 256 255 256 256 256 256 256 256 255 256 255 255 255 256 257 258 258 259 259 259 259 259 260 260
278 279 281 277 279 280 281 278 281 281 287 289 285 280 282 285 286 278 275 284 287 284 287 288 287 288 288 283 280 281 283 287 284 278 275 276 276 274 275 275 274 272 269 268 266 267 264 264 263 262 261 261 261 260 260 259 258 258 258 258 257 256 256 256 256 256 255 255 255 255 255 255 255 255 255 256 257 258 258 258 259 259 258 258 259 260
278 279 279 281 278 278 279 278 278 282 288 289 282 283 284 284 276 278 288 286 289 286 283 286 287 287 286 283 282 284 286 282 273 276 276 276 275 273 272 270 269 268 268 268 267 265 263 263 261 260 260 260 260 260 259 258 257 258 257 257 256 256 257 256 255 255 253 253 253 253 253 254 255 255 256 257 257 257 257 258 258 258 258 258 259 259
279 278 274 278 280 280 280 277 277 274 285 289 283 282 283 283 285 291 293 288 286 285 282 283 285 286 284 284 283 284 279 276 276 275 276 275 272 270 269 268 267 266 265 265 264 264 263 261 260 259 259 259 260 259 259 257 257 257 257 256 256 256 256 255 254 253 252 252 252 252 253 253 254 255 256 256 257 256 256 257 257 257 257 258 259 260
286 280 277 281 284 277 277 275 276 284 289 285 287 282 284 288 293 294 292 291 292 287 285 285 284 285 284 285 284 282 279 277 275 275 274 274 271 269 269 268 267 266 265 265 264 263 262 261 260 259 259 259 259 259 259 257 256 256 255 256 256 256 254 253 253 252 250 250 251 252 253 253 254 255 255 255 256 256 256 256 256 257 257 258 259 260
287 286 286 282 285 284 280 284 288 290 287 286 291 291 291 290 292 293 292 292 292 289 287 287 288 286 284 285 284 283 279 278 277 275 275 273 270 269 268 268 267 266 265 263 263 263 262 260 259 258 258 259 258 258 257 257 256 256 255 256 255 255 254 252 250 250 249 249 250 251 252 253 254 254 254 255 255 255 255 255 255 255 257 258 260 261
291 292 291 289 286 290 290 290 288 283 282 285 289 292 292 291 290 290 289 289 290 291 286 287 288 286 284 284 283 281 280 278 276 275 275 273 271 270 269 268 267 266 264 263 262 262 261 260 258 258 257 258 257 257 257 256 256 254 256 255 255 254 253 250 248 248 248 248 249 250 251 252 254 254 254 254 255 255 255 255 255 255 256 258 259 260
289 290 288 286 288 286 281 290 289 288 285 285 287 289 291 291 291 290 288 289 290 290 286 286 287 286 284 283 283 282 280 278 277 276 274 272 271 270 269 267 267 265 263 262 262 261 260 258 258 257 257 256 257 256 256 255 256 255 255 254 254 253 251 248 248 249 248 247 249 250 251 252 253 255 255 254 254 254 255 255 255 255 257 258 259 260
285 291 286 286 287 285 285 290 291 292 291 288 287 288 288 289 288 287 288 289 289 289 287 286 284 284 283 282 283 282 280 278 277 275 273 272 271 270 268 267 266 265 264 263 262 260 259 258 258 257 257 256 256 256 255 255 255 254 254 254 253 250 248 248 249 248 247 247 249 250 251 251 255 254 253 254 254 254 253 254 255 256 257 257 259 260
289 291 283 286 286 287 290 291 291 290 285 288 290 290 291 291 290 289 288 287 285 284 284 283 284 284 283 283 283 282 279 277 278 276 274 273 271 270 268 267 266 265 263 261 260 259 259 259 258 257 257 257 257 255 255 254 254 253 253 253 251 249 248 248 249 248 246 249 249 251 252 251 250 252 252 253 254 254 254 254 255 257 258 260 261 263
287 286 289 287 284 284 285 287 290 285 285 289 290 291 291 292 291 291 290 287 286 285 284 283 282 283 283 284 283 282 280 278 277 276 274 273 271 269 268 267 265 264 262 261 260 260 260 259 258 258 257 257 256 255 254 253 253 253 254 252 251 249 248 248 248 247 246 248 249 250 251 251 251 251 252 252 252 253 254 258 263 261 260 260 266 269
289 289 289 286 284 284 289 292 292 292 291 293 294 294 293 293 292 291 290 289 288 287 286 285 283 281 281 281 283 282 281 278 277 277 275 274 272 270 268 266 264 263 261 260 259 259 259 259 258 258 257 256 255 254 253 253 253 252 253 252 252 250 249 249 247 247 248 249 248 251 251 251 252 252 252 252 253 252 252 253 255 262 264 265 266 267
Wind_Speed
1 2 5 5 8 8 5 7 5 4 5 3 3 1 6 6 9 4 4 2 1 1 10 13 9 12 17 18 16 6 8 11 10 12 13 10 11 13 13 15 16 16 16 7 9 9 9 10 9 8 6 6 5 5 5 5 5 5 5 4 4 4 3 3 3 2 2 2 2 2 3 5 5 5 4 5 4 3 2 2 2 2 2 2 3 3
2 1 7 10 10 7 5 5 7 6 2 1 1 3 8 4 10 5 1 1 4 4 5 3 5 12 16 17 16 5 7 15 15 15 15 13 13 13 16 18 17 16 4 6 8 8 8 9 8 6 6 5 7 6 5 7 8 6 4 4 5 3 3 4 4 3 2 2 2 3 5 5 5 6 5 6 5 4 2 2 2 3 3 3 3 4
1 8 9 3 2 6 5 5 3 3 2 1 3 3 3 9 6 11 4 2 1 2 10 6 9 14 17 18 18 15 15 13 11 15 17 14 15 14 15 16 14 9 11 9 11 8 10 10 9 8 7 7 9 9 9 7 5 4 5 5 5 4 4 4 4 3 3 3 3 3 4 4 5 5 5 5 6 3 3 3 4 4 5 6 6 5
5 7 11 1 6 6 3 3 4 3 2 3 1 1 9 3 4 9 2 4 1 1 7 7 15 17 16 17 23 19 12 13 11 11 14 11 15 17 18 16 15 16 14 16 16 15 12 12 11 8 9 9 7 8 6 5 6 5 5 5 5 5 4 4 4 4 4 4 4 4 5 5 5 6 4 5 5 3 1 4 3 3 3 4 5 5
10 2 1 5 3 5 3 2 4 3 6 2 5 5 5 5 6 7 5 6 5 2 1 9 14 12 9 12 9 3 2 3 11 6 7 10 12 10 7 9 14 18 17 15 14 13 14 14 14 13 10 8 8 8 8 7 7 5 6 6 6 6 5 4 3 4 4 3 3 3 4 5 4 4 5 5 5 2 1 3 3 4 4 5 5 4
12 3 3 3 2 1 4 3 5 6 4 3 6 11 8 6 6 4 4 6 5 4 3 5 12 5 1 3 10 10 4 6 3 5 10 10 8 7 11 15 11 12 12 17 18 19 18 16 12 10 10 9 9 9 8 7 7 5 5 4 4 4 4 4 4 4 3 3 3 3 4 5 4 6 7 8 9 9 8 7 5 5 5 5 5 4
5 2 1 4 4 2 3 4 3 6 6 1 5 3 6 2 1 1 3 5 6 3 1 4 2 17 3 2 4 6 3 8 9 7 12 6 8 9 14 13 11 13 12 11 11 12 14 14 13 12 11 10 10 9 7 6 5 5 5 4 5 5 4 4 3 3 3 3 3 3 3 3 4 5 4 3 4 4 6 5 7 7 6 6 7 7
2 1 5 4 4 3 3 4 5 9 5 5 1 4 5 4 1 2 1 3 7 0 4 3 6 13 15 8 11 14 9 10 13 18 12 10 8 11 13 11 10 12 13 14 16 17 16 16 17 17 12 10 10 8 6 6 5 5 6 5 5 4 4 3 3 3 3 3 3 3 3 3 4 4 7 6 5 3 4 6 7 6 6 5 5 7
4 3 2 3 1 3 7 5 5 7 6 3 3 5 3 2 3 3 2 4 2 5 9 5 1 4 8 5 3 1 5 8 15 17 14 9 9 11 12 11 12 12 14 15 15 17 18 18 16 12 12 10 9 7 8 7 7 6 5 4 3 4 3 3 3 3 3 3 3 3 3 4 4 4 5 5 4 4 4 6 6 7 7 6 5 6
1 2 6 6 5 7 4 1 4 10 4 1 5 5 6 5 5 2 1 1 4 3 16 5 8 4 21 6 4 2 2 7 12 15 13 10 7 8 10 10 10 8 10 12 15 14 15 14 12 10 9 9 9 8 8 6 5 4 3 3 3 4 3 3 3 2 3 3 2 3 3 4 5 4 5 4 6 6 5 7 8 7 7 7 7 6
1 5 5 4 5 4 5 2 1 1 2 5 5 2 3 5 3 2 6 1 3 7 14 5 15 9 12 4 9 9 9 11 11 7 6 6 6 6 7 8 9 11 11 11 11 11 12 10 11 10 12 10 8 7 7 6 5 4 4 4 4 4 2 2 3 2 3 3 2 3 3 4 5 6 6 7 8 7 7 8 9 8 8 8 8 7
1 1 1 2 4 4 4 4 3 2 2 3 1 2 5 3 5 2 4 4 1 11 2 2 9 8 9 5 5 6 3 5 10 8 7 7 8 7 6 7 9 10 10 9 10 10 11 10 10 9 11 9 9 7 7 6 4 4 4 3 4 3 3 3 3 2 3 2 3 3 3 4 4 5 6 7 9 8 9 8 10 9 8 9 9 8
5 8 2 1 4 8 3 5 1 2 2 4 4 3 1 6 7 5 3 2 6 10 1 1 4 5 17 19 4 6 11 9 8 8 8 7 7 5 4 7 8 8 7 10 11 11 12 15 15 12 10 9 9 9 9 8 6 5 4 4 4 4 3 3 2 2 3 3 3 3 3 4 4 5 5 6 7 7 8 8 9 9 10 9 10 9
8 1 1 4 2 5 7 6 2 1 3 6 6 5 4 1 0 5 5 2 7 6 3 2 2 10 11 9 15 21 19 13 10 10 9 6 7 6 5 6 7 7 10 11 12 12 14 15 13 12 11 10 9 9 10 7 6 4 4 4 4 5 3 2 2 2 2 3 3 3 3 4 4 5 5 5 7 8 7 7 9 9 9 11 10 11
5 9 6 7 4 3 9 9 8 6 9 10 3 8 8 8 6 5 3 6 11 9 1 5 3 9 5 5 1 12 13 10 9 9 7 4 4 4 4 4 5 7 8 9 11 13 14 14 13 13 11 10 9 9 8 6 5 4 4 4 4 3 3 1 2 1 3 3 3 3 3 4 4 5 5 5 6 7 9 8 9 9 8 9 11 11
10 9 3 1 1 4 9 0 5 6 4 2 3 5 5 9 6 7 5 3 4 8 9 3 8 4 8 1 2 3 3 7 4 8 6 8 3 3 3 6 8 8 9 9 11 11 12 12 11 10 10 9 8 8 7 6 5 5 5 4 4 4 3 1 1 2 2 3 3 3 4 5 4 4 5 6 6 7 7 9 9 9 10 8 10 11
2 6 0 3 3 2 3 1 1 3 7 4 6 6 7 1 4 2 2 1 1 3 17 2 11 11 4 14 12 11 4 11 3 8 7 8 4 2 8 8 7 8 9 10 12 13 13 10 10 10 10 9 8 7 7 7 7 7 5 4 3 3 1 1 1 2 3 3 3 4 5 4 4 5 6 8 9 9 8 8 9 9 11 10 10 9
5 7 1 3 5 0 1 0 1 4 3 8 3 7 2 2 4 5 5 3 2 4 11 1 15 21 4 17 6 3 7 7 8 12 11 4 2 5 11 9 9 10 10 9 9 8 11 11 11 9 8 9 9 8 7 6 5 5 5 4 3 2 1 2 1 2 3 3 4 5 4 4 4 5 7 7 8 8 9 9 8 9 9 11 10 10
5 9 1 2 1 3 1 1 1 1 1 2 2 2 5 3 1 1 4 4 3 5 8 9 8 15 14 18 8 4 6 7 9 11 7 7 6 10 12 9 7 5 6 10 12 11 12 13 12 11 10 8 8 7 7 6 6 4 3 3 3 2 2 2 1 2 2 3 4 4 4 5 6 5 6 7 8 9 10 11 10 11 10 11 9 11
1 6 4 1 2 1 1 4 9 4 1 1 0 1 1 2 2 5 7 3 5 7 2 18 11 21 3 9 6 7 10 9 10 7 9 12 12 12 11 9 10 10 12 11 12 13 13 12 11 11 11 10 8 7 5 6 5 5 4 3 2 1 1 0 2 2 3 4 4 4 4 5 5 5 7 7 8 9 10 10 11 11 12 11 10 11
4 4 8 1 4 2 4 8 14 15 11 2 2 2 1 0 2 4 1 5 6 4 7 4 13 21 10 11 8 10 7 11 12 13 10 10 12 13 11 11 10 12 12 12 13 13 13 11 9 9 9 8 6 5 5 6 6 5 4 3 2 2 2 2 2 1 3 3 3 4 5 6 6 7 7 8 8 10 10 10 11 9 11 10 11 10
3 4 12 4 0 8 10 1 1 6 13 14 15 14 15 9 4 2 13 3 2 5 8 5 19 18 16 8 7 8 7 8 11 12 10 9 12 11 11 10 10 11 12 12 11 10 11 9 9 8 6 5 7 6 6 5 5 4 3 3 2 2 2 1 1 2 3 2 3 4 6 6 6 6 7 8 10 10 10 10 9 11 11 10 12 10
4 2 1 8 13 12 2 0 1 1 1 1 5 7 11 9 6 5 12 10 1 7 3 2 2 25 5 5 7 5 6 8 11 10 8 9 10 10 11 10 9 10 10 10 10 11 10 10 10 9 9 8 9 8 6 5 5 4 3 3 2 2 1 1 2 2 2 3 4 5 5 6 7 7 8 9 9 9 10 10 10 10 10 12 10 10
5 2 2 11 6 3 1 1 1 2 1 3 6 2 6 11 16 15 11 3 5 1 4 1 5 23 13 4 5 5 4 5 3 3 8 8 7 8 9 8 10 10 7 7 8 8 9 8 8 9 9 9 7 7 7 6 5 4 3 3 2 1 1 2 1 2 2 3 4 5 6 7 7 8 9 10 9 10 10 9 9 9 11 11 10 12
4 4 6 3 5 7 3 2 1 2 2 6 6 7 10 8 6 1 4 1 2 14 7 9 16 26 1 1 0 1 2 5 7 6 7 8 7 8 8 8 7 6 6 8 11 12 10 10 12 12 10 9 8 6 6 6 5 5 4 3 2 1 1 1 1 2 3 4 6 6 7 8 8 9 9 10 9 10 10 10 10 10 11 12 13 12
5 5 8 8 15 15 14 11 10 8 13 4 3 1 8 16 14 5 9 7 12 10 14 9 22 27 19 11 4 2 5 9 8 7 5 8 9 7 6 7 7 9 11 11 10 10 15 14 10 9 9 8 8 8 7 6 6 5 4 3 2 1 0 1 1 2 4 5 6 7 8 8 8 9 10 10 10 11 10 10 10 11 11 11 13 14
4 3 10 16 16 18 19 11 2 6 6 7 9 13 16 14 18 15 7 5 18 11 10 23 30 22 22 32 22 15 14 12 16 9 9 10 10 9 6 8 10 11 12 15 15 13 8 8 13 11 9 9 8 7 7 6 5 5 4 3 2 1 0 1 3 4 5 6 6 7 8 8 9 9 9 9 10 10 10 11 11 10 12 11 13 13
3 6 14 19 21 21 17 17 6 9 6 9 12 12 17 18 15 17 17 19 13 2 20 23 22 17 28 35 27 20 21 18 19 16 12 8 8 10 12 9 6 6 7 7 9 12 17 15 11 11 11 10 9 8 7 5 6 4 4 3 2 1 1 2 3 3 4 5 6 7 8 8 9 9 9 9 10 10 10 10 10 11 11 12 13 13
5 12 16 16 18 18 19 21 5 5 8 8 11 16 17 18 15 19 22 26 19 15 24 26 23 22 29 31 26 21 19 17 20 17 10 10 7 6 5 7 10 13 12 12 15 15 14 15 14 12 12 10 9 9 8 6 5 4 3 2 1 1 2 2 2 3 4 4 6 7 8 8 8 8 9 9 10 10 10 10 11 11 12 12 12 11
1 11 12 11 15 15 21 19 11 10 8 9 13 17 21 14 18 23 26 29 22 21 26 29 27 29 31 32 21 23 18 15 17 13 5 4 7 8 9 11 12 12 14 16 17 17 15 14 13 13 12 11 10 9 8 6 5 4 4 2 2 2 2 2 2 3 4 5 6 6 7 8 8 9 9 9 10 10 10 11 12 12 12 13 13 13
7 12 16 10 11 17 20 16 7 11 12 17 21 25 25 17 18 24 26 18 13 20 30 29 26 30 34 26 16 22 18 10 13 18 19 17 11 9 11 11 12 13 15 15 14 14 13 13 12 12 12 12 11 10 8 7 6 4 3 3 2 2 1 1 2 3 4 6 6 7 7 7 8 8 8 9 9 9 11 11 11 12 12 13 13 14
8 6 1 2 10 15 16 12 7 9 7 12 21 30 29 24 22 27 20 16 15 23 24 19 21 27 32 24 17 17 16 16 20 21 19 17 13 9 11 13 13 14 14 15 15 14 13 14 15 14 13 12 10 9 8 7 6 5 4 3 3 1 1 1 2 4 5 6 6 7 7 7 8 8 9 9 9 10 10 11 12 12 13 13 14 14
8 4 6 7 11 16 12 7 6 4 1 10 22 34 30 23 23 23 19 15 21 22 17 21 27 30 26 18 18 21 17 17 19 17 19 16 10 11 14 15 15 14 15 15 15 17 17 17 16 14 12 10 10 9 8 8 7 5 4 4 2 1 0 1 2 3 5 5 5 6 6 7 7 7 8 9 10 10 10 11 12 12 13 14 13 13
3 8 9 6 10 9 3 3 4 2 12 22 18 1 13 21 20 21 24 26 23 18 20 24 28 30 19 15 20 25 23 23 20 18 11 12 11 11 13 13 14 14 13 13 15 17 16 12 11 11 12 11 9 9 8 7 6 5 5 4 2 1 2 2 3 3 5 5 5 5 6 7 6 7 8 9 9 10 11 11 12 12 12 12 13 13
11 10 11 5 5 9 5 4 1 14 20 20 7 7 3 7 8 15 21 24 27 23 25 27 33 31 23 23 24 22 22 24 21 15 6 9 11 12 14 14 13 12 13 14 14 13 15 16 13 12 11 10 10 8 8 7 5 5 4 4 2 1 1 1 3 4 5 5 5 5 4 5 6 8 9 9 10 10 11 11 12 13 11 11 13 14
10 12 5 4 4 4 3 9 15 23 13 11 18 15 4 1 3 4 15 22 25 25 24 26 30 29 24 27 24 20 21 20 16 12 7 9 13 13 11 12 13 13 14 15 17 17 18 18 18 17 13 10 9 7 7 7 6 6 5 3 3 2 1 2 3 5 4 3 4 4 5 5 6 8 9 10 10 11 12 12 12 13 13 12 12 11
14 7 7 12 10 14 12 14 20 14 20 26 23 29 8 8 5 9 17 22 27 24 18 19 24 24 24 22 21 20 8 6 12 22 6 13 14 12 14 13 13 15 15 14 17 17 15 13 14 14 14 12 9 9 8 7 7 6 5 3 2 1 1 2 3 3 4 4 5 5 5 5 6 8 9 10 11 12 12 13 14 12 11 13 12 13
15 16 10 12 10 12 14 13 11 12 18 22 35 5 7 8 10 11 9 22 29 31 12 18 22 26 24 18 19 10 4 5 14 22 11 12 10 10 5 4 5 7 9 11 11 12 13 12 12 13 11 11 9 8 8 8 7 7 5 3 3 2 2 2 2 4 3 5 3 5 5 5 6 7 9 9 11 12 12 11 10 10 10 12 13 15
14 15 14 14 13 9 12 15 15 15 22 19 23 3 1 2 8 6 4 18 26 8 17 20 21 22 19 16 14 7 4 6 16 17 11 2 6 8 8 5 8 10 13 17 20 19 15 14 17 15 11 10 11 9 8 8 8 7 5 4 2 2 3 2 3 3 4 5 5 5 4 4 6 6 8 9 10 10 12 12 11 11 10 10 11 13
13 12 11 13 16 16 16 15 17 11 15 19 6 3 4 10 11 7 6 18 12 16 17 16 20 17 16 15 6 9 12 11 13 16 2 7 7 8 10 12 12 12 12 12 10 16 20 16 17 12 10 11 10 10 10 8 7 6 5 4 3 3 3 1 3 4 4 5 5 3 4 4 5 6 7 10 10 10 10 10 10 11 11 11 10 12
7 9 13 19 19 20 21 17 11 11 11 21 9 8 9 6 8 6 20 23 1 3 10 15 15 17 13 7 11 11 14 18 9 2 6 7 9 6 5 6 10 17 20 17 16 15 17 11 13 14 12 10 11 10 9 8 8 6 5 5 4 4 3 2 2 3 4 4 4 3 4 4 4 8 8 8 9 9 10 9 11 12 12 12 11 11
8 8 6 10 14 16 18 21 18 12 10 6 9 16 9 8 7 18 24 6 4 5 7 10 14 12 10 12 12 14 13 6 6 5 7 8 8 8 10 12 13 12 11 13 15 14 15 14 12 12 10 9 10 9 8 8 8 7 6 5 5 3 2 1 2 2 2 3 4 4 5 5 6 6 7 8 8 9 10 9 9 10 11 11 11 14
14 11 11 14 10 9 8 11 9 12 15 17 14 5 4 10 20 22 21 10 3 7 9 8 10 9 10 12 14 15 4 5 7 9 9 10 12 15 18 21 21 17 17 15 12 12 18 16 10 10 10 10 9 8 8 9 9 7 6 5 5 4 3 1 1 2 2 3 4 4 5 5 6 8 6 7 8 9 11 9 9 11 10 11 12 13
11 7 4 12 12 11 15 14 14 19 16 20 22 15 17 25 26 22 15 14 16 9 10 10 8 11 12 13 13 11 8 7 4 8 9 8 10 13 15 15 14 11 9 5 13 17 14 16 10 10 9 9 9 8 8 9 8 7 6 5 5 3 2 1 0 1 2 3 4 5 6 5 6 7 6 7 8 8 9 10 10 10 9 10 11 11
16 21 17 17 15 15 14 17 18 15 10 19 22 22 24 33 29 23 16 15 15 12 7 8 14 11 12 13 11 13 9 12 12 13 14 14 12 14 17 15 16 16 16 16 15 11 13 14 14 11 10 8 9 7 6 6 8 9 7 6 4 3 3 1 0 0 1 3 4 5 6 7 6 5 5 6 7 8 8 10 9 9 9 9 10 11
19 27 19 13 10 14 16 6 4 3 9 17 19 20 22 19 17 18 16 13 13 13 9 12 13 12 12 12 11 8 13 13 13 12 10 13 14 8 8 9 8 9 15 12 11 10 13 13 11 11 12 9 8 7 6 5 7 10 7 6 5 4 2 2 1 1 1 2 3 5 6 8 8 6 5 5 5 6 7 8 9 9 10 9 9 11
17 12 12 15 11 9 14 15 26 20 14 17 22 24 21 16 17 13 11 16 19 14 9 9 11 11 14 13 16 16 15 13 13 12 12 13 15 16 15 14 14 15 16 15 13 14 12 11 11 10 11 11 8 7 6 7 5 5 6 6 5 4 3 2 1 1 2 3 4 4 5 5 6 8 8 5 4 5 7 8 8 8 8 8 10 10
15 12 15 15 12 17 21 20 24 23 22 17 17 17 20 22 19 11 14 14 14 12 9 11 6 7 8 11 16 14 14 14 15 15 14 15 16 17 16 14 14 11 5 8 12 10 11 11 12 12 11 10 9 8 7 7 6 6 6 5 5 4 3 3 2 2 2 3 3 4 4 4 7 8 8 9 7 6 5 5 7 8 9 10 11 10
9 16 14 13 18 22 19 19 16 12 3 9 20 22 22 19 17 20 20 17 9 7 9 9 11 13 13 18 14 12 12 16 18 19 18 15 13 15 16 14 12 13 14 14 12 15 14 12 11 12 11 10 9 9 8 8 7 6 7 6 6 5 4 4 3 3 1 2 3 4 3 3 3 5 6 8 10 8 5 5 7 8 8 8 7 10
5 16 8 10 18 17 18 22 22 18 18 18 24 25 24 23 22 21 15 13 15 16 15 14 14 11 12 12 14 16 18 16 15 15 18 18 20 20 17 19 18 15 10 8 9 9 12 9 14 13 10 9 9 8 8 8 7 6 6 5 5 5 6 4 4 3 1 2 3 4 4 4 4 3 4 5 7 10 13 11 13 9 9 9 17 23
18 19 14 19 18 22 23 26 22 23 22 20 21 21 20 20 20 20 20 21 20 20 20 18 15 10 12 14 14 17 17 17 19 17 16 15 16 19 21 24 20 13 13 13 13 11 12 10 11 14 11 9 9 8 8 8 7 6 5 6 5 6 6 5 5 2 0 2 2 4 4 4 5 4 4 4 5 5 5 11 15 16 16 17 20 22
Wind_Direction
80 167 212 210 227 223 228 190 189 188 145 108 108 147 238 235 276 270 225 258 23 328 250 256 239 253 264 266 270 221 208 231 234 234 229 216 207 210 213 214 215 215 215 184 191 191 184 186 187 188 183 190 182 175 174 175 193 190 189 167 215 220 210 205 226 252 217 251 291 282 255 262 271 269 264 261 257 246 250 250 235 252 253 261 279 304
65 325 250 228 229 208 211 152 104 84 82 148 166 207 275 206 260 264 259 5 301 171 288 283 247 251 257 267 267 236 182 232 219 230 234 219 214 214 214 217 215 217 174 172 201 201 189 190 192 188 189 190 173 201 177 184 196 195 184 179 214 224 205 211 208 212 212 198 195 226 256 263 283 293 292 301 303 299 297 285 282 293 290 299 311 317
25 226 238 219 193 102 82 113 95 145 146 81 209 233 304 271 246 280 315 10 11 140 259 281 274 260 261 262 266 253 231 243 223 216 230 211 216 220 217 221 217 202 205 197 207 194 194 191 195 190 195 202 191 179 187 194 185 198 192 206 215 212 200 218 212 200 216 224 234 206 247 243 267 255 248 256 263 277 296 301 316 316 320 323 322 317
288 272 247 208 140 104 52 77 105 71 80 141 107 163 241 236 12 308 300 4 304 193 294 308 291 274 259 256 257 256 247 249 245 226 232 209 218 217 216 210 206 208 200 201 197 196 192 193 193 195 199 204 197 176 185 184 196 201 201 206 205 212 208 215 222 211 219 216 229 240 247 259 238 257 261 256 268 277 328 309 292 285 284 291 292 300
215 195 120 117 131 138 160 159 133 166 254 267 191 210 256 273 236 194 271 319 285 310 148 294 278 268 216 240 272 326 334 251 264 248 247 233 230 229 231 218 210 208 200 199 196 195 192 193 198 195 198 196 193 184 185 189 195 194 202 203 197 203 203 207 218 218 216 233 263 266 272 256 266 270 253 243 249 213 245 281 288 281 268 267 268 268
278 260 145 94 103 99 144 208 216 149 243 318 227 205 222 230 268 295 337 3 5 326 345 33 325 277 319 233 258 276 333 298 250 215 239 234 226 222 224 224 211 216 201 199 197 194 193 192 191 197 200 194 197 187 192 188 193 189 206 200 203 209 211 217 224 215 200 213 235 283 321 328 324 321 331 335 335 333 333 319 304 295 294 294 290 282
225 22 140 184 150 147 178 204 246 157 192 48 269 200 220 226 192 336 336 29 304 230 316 38 131 283 117 225 249 270 249 273 282 239 261 231 222 214 227 224 206 205 200 203 199 195 193 196 191 198 198 196 190 195 185 186 193 198 206 202 199 199 206 211 227 213 205 231 237 245 255 255 271 285 266 250 271 283 290 291 296 299 305 303 299 296
97 28 65 65 111 140 180 250 242 156 117 239 245 116 105 109 130 199 126 189 247 326 286 207 176 271 281 235 238 244 257 268 278 277 263 251 227 222 227 222 209 202 199 195 198 196 197 191 192 194 192 194 192 185 176 184 193 199 213 205 205 204 204 217 224 231 206 233 249 264 269 270 280 268 282 289 278 267 277 290 292 298 294 287 278 283
133 165 167 139 117 152 210 209 190 162 147 220 211 132 130 136 183 154 167 242 240 13 293 195 166 301 251 268 343 91 228 256 259 261 267 253 230 228 231 221 213 204 200 194 195 196 193 194 195 188 189 197 189 175 175 187 194 203 207 195 186 202 206 239 235 235 243 228 244 242 263 282 271 274 283 290 288 289 282 285 293 294 292 285 269 265
288 163 209 160 150 228 221 266 186 168 192 242 139 92 80 72 69 114 125 225 316 57 278 191 190 213 280 183 145 357 198 243 245 248 253 257 237 227 229 225 212 205 202 203 203 195 194 193 189 187 183 188 188 183 180 184 183 195 188 201 186 222 208 228 253 242 259 249 244 271 273 285 296 301 298 290 299 303 306 303 299 296 292 288 285 273
268 292 158 148 200 203 133 64 135 39 95 122 109 97 7 40 36 30 69 82 31 272 263 238 187 170 285 175 180 155 202 200 227 265 279 276 274 248 229 212 204 202 202 199 196 193 192 186 182 181 188 186 185 181 178 185 192 195 190 203 196 219 217 234 247 248 265 264 263 268 280 294 304 310 307 313 312 315 317 310 305 301 298 294 290 291
353 50 188 259 82 111 103 83 37 93 139 127 84 105 14 333 16 35 338 40 177 265 271 285 179 182 220 284 231 235 272 213 189 212 236 254 255 246 219 216 209 203 199 187 181 187 181 178 192 183 186 181 180 176 183 196 196 195 200 184 209 235 230 248 253 265 272 274 279 277 289 302 303 301 303 307 307 311 305 301 298 299 296 294 292 291
279 211 231 317 204 131 114 81 354 11 20 89 78 39 85 271 20 316 34 302 197 232 214 34 152 311 234 245 226 259 255 240 228 219 231 249 267 253 224 216 211 201 182 183 186 182 185 187 186 190 184 176 180 181 187 196 197 192 183 189 192 239 233 245 250 259 271 284 286 299 306 305 296 290 290 298 297 299 297 298 296 300 297 298 299 299
278 330 137 215 82 219 137 148 229 292 219 122 157 147 104 277 220 263 269 230 301 286 260 160 127 248 274 277 214 231 235 223 228 223 241 244 256 258 223 217 207 196 191 190 188 188 188 188 187 183 180 181 180 186 188 193 188 183 188 186 183 229 233 249 268 274 291 289 295 303 302 295 288 285 290 293 296 296 293 291 291 294 295 297 293 296
300 308 258 149 242 160 184 208 183 160 159 197 119 152 185 142 155 232 211 243 259 259 243 246 50 241 350 231 236 211 227 234 235 255 266 274 249 257 236 218 204 195 198 190 191 192 190 189 182 181 180 181 183 185 189 187 186 168 187 181 196 236 259 235 261 284 294 297 301 300 291 281 277 282 293 291 290 294 295 292 288 288 290 291 295 292
219 245 261 298 236 145 184 321 109 105 62 173 163 80 98 228 127 226 203 201 299 339 311 165 215 194 215 69 302 219 290 253 266 260 267 267 265 237 240 216 207 201 195 192 194 195 195 188 181 179 182 182 182 184 183 186 175 174 190 183 195 209 239 247 270 290 283 290 289 295 290 280 286 299 302 295 289 285 285 291 292 291 290 288 291 291
31 274 318 358 61 153 178 119 220 142 210 207 116 196 211 163 127 19 352 59 60 67 266 141 280 266 325 274 219 246 191 247 239 259 254 253 257 210 236 229 210 202 195 194 196 195 188 184 191 183 178 179 180 178 184 188 179 178 175 176 203 222 230 243 272 271 293 286 297 289 281 291 311 307 299 295 294 293 293 292 292 291 291 291 289 290
181 257 185 108 216 313 238 167 68 27 147 102 196 234 176 150 113 128 219 321 61 208 269 26 266 285 3 290 62 83 193 250 248 244 240 251 221 222 238 228 209 204 203 199 200 196 190 190 185 180 181 178 178 181 183 184 176 172 161 174 186 202 233 269 256 279 271 287 288 282 288 306 302 298 293 292 296 301 301 296 291 290 291 292 292 291
121 280 262 325 90 316 23 126 5 344 48 147 192 234 116 218 205 302 89 266 257 256 268 278 280 271 239 264 267 207 190 232 244 242 243 246 229 231 240 233 215 201 188 193 196 191 190 192 188 181 179 177 179 178 176 165 156 146 155 175 163 197 211 225 250 264 287 286 280 281 307 309 302 293 293 297 302 303 299 297 295 292 289 290 290 293
31 204 296 256 155 259 352 128 206 183 344 47 262 26 297 105 172 133 198 188 114 249 4 276 309 273 174 202 233 251 187 202 221 239 230 226 223 225 232 221 205 197 202 198 196 197 194 191 185 177 174 175 175 171 169 151 143 152 166 162 164 163 191 248 270 278 291 275 279 302 305 293 290 299 304 307 306 300 296 293 295 294 295 293 294 292
182 115 245 57 299 104 198 189 210 172 168 159 165 253 340 189 231 108 327 157 171 197 217 278 296 276 260 182 205 235 201 197 199 220 220 220 228 228 224 213 205 203 201 201 196 194 190 185 179 176 174 171 167 162 152 153 157 155 147 155 156 177 223 222 245 250 261 273 287 299 295 298 310 312 311 304 298 294 292 294 294 293 292 295 291 294
128 168 211 187 34 215 238 345 270 177 188 179 179 203 187 142 135 147 256 80 154 189 234 165 253 275 281 138 170 202 211 189 215 214 216 216 228 225 223 220 203 205 210 200 196 186 183 180 176 169 162 150 152 151 156 154 128 132 151 159 170 176 199 200 261 245 270 284 295 295 302 310 315 309 305 299 296 292 294 295 295 295 296 291 292 295
146 124 99 222 223 236 200 229 95 234 39 219 201 231 165 192 130 152 239 229 74 249 88 161 45 271 236 152 155 201 197 191 218 212 215 219 227 223 227 220 213 210 204 194 186 186 182 181 174 166 160 162 164 166 158 147 144 150 155 158 184 170 213 206 237 260 292 304 304 306 314 316 312 307 299 295 293 293 295 295 294 296 294 298 299 297
82 112 239 262 302 344 332 359 59 48 45 322 255 153 139 195 199 211 227 173 178 179 186 62 219 258 265 111 183 194 196 219 259 193 208 228 224 230 229 219 206 207 199 177 179 180 179 171 163 158 168 168 164 157 160 154 144 144 163 170 174 176 206 233 267 310 308 304 306 314 316 314 305 300 296 292 293 292 293 292 294 300 298 299 301 302
144 244 163 286 330 315 336 354 42 343 65 216 225 200 204 227 226 210 72 127 234 225 169 136 248 257 198 339 15 131 277 253 239 227 216 235 235 233 225 221 213 196 170 177 183 182 170 173 175 176 167 166 164 158 154 151 154 156 171 161 157 182 204 289 321 327 317 324 321 317 310 296 296 291 290 291 291 290 290 291 298 302 304 306 305 305
174 171 143 211 230 242 250 243 233 222 211 213 250 203 206 209 208 104 229 198 228 235 146 204 246 252 275 259 176 218 236 265 244 222 239 219 237 232 224 217 203 188 195 188 180 171 185 186 169 163 167 164 164 161 156 156 157 159 156 159 149 188 221 327 343 337 339 333 324 314 300 294 289 292 294 293 291 291 295 301 304 306 305 307 306 308
187 187 198 216 219 231 240 250 69 110 78 180 227 202 222 215 217 215 233 182 225 229 193 228 238 270 278 272 262 259 259 249 272 247 228 240 233 230 219 213 205 197 193 190 186 186 165 162 182 171 162 166 162 158 158 157 156 153 151 149 160 141 50 11 356 354 343 332 316 302 296 292 293 296 295 295 296 299 302 301 303 306 308 308 305 304
91 216 222 226 229 238 245 256 183 158 175 216 211 223 226 217 208 208 212 226 212 88 249 245 252 252 258 263 268 269 268 274 268 272 272 247 233 217 217 212 193 187 195 188 179 181 188 184 168 168 168 161 160 152 151 149 148 153 150 164 163 138 78 21 14 350 334 318 304 295 292 296 296 295 294 294 297 296 298 302 308 309 309 309 305 300
186 228 235 228 242 247 250 254 193 187 226 231 207 223 227 219 213 216 225 233 215 213 240 251 248 247 255 259 264 264 264 264 270 272 261 243 235 214 190 184 193 197 195 190 195 193 185 179 177 169 166 164 154 156 152 146 143 137 138 142 134 92 58 37 3 336 319 302 290 289 295 297 299 294 296 300 300 303 306 310 310 311 309 306 300 296
171 246 247 238 251 247 252 250 237 221 237 254 251 241 236 215 220 223 230 231 217 231 243 251 255 258 261 259 261 267 268 268 278 284 275 228 228 211 201 206 201 199 196 197 197 195 188 179 170 169 164 161 163 156 153 151 152 153 153 152 116 83 55 41 341 314 300 286 285 291 294 296 296 299 301 303 305 310 314 312 315 312 308 303 300 298
177 240 232 240 258 253 254 252 223 233 242 251 255 256 249 234 234 235 235 239 230 242 247 251 260 264 260 259 264 267 271 282 280 276 267 263 250 220 214 213 209 204 204 202 198 190 181 175 171 164 165 168 163 161 156 154 153 146 144 130 107 74 49 30 313 290 284 284 284 289 291 292 294 300 302 308 309 314 316 315 314 310 306 305 303 300
183 275 71 76 238 259 254 256 216 218 231 242 254 256 253 239 235 243 240 220 213 234 244 256 259 256 261 268 264 265 270 266 261 262 266 263 254 224 221 222 213 209 203 199 193 181 174 175 175 171 171 166 159 154 152 150 150 148 146 124 102 90 38 303 279 281 279 279 284 289 293 295 302 307 311 315 316 318 318 312 311 310 308 306 307 305
195 171 219 221 240 248 270 89 129 103 94 272 248 241 245 247 237 249 256 232 217 225 236 242 245 248 257 274 281 273 259 252 258 257 254 259 241 218 219 222 216 210 204 192 184 183 182 180 176 169 160 157 158 155 151 143 143 149 134 114 114 82 249 258 260 276 280 277 282 291 296 302 309 314 316 319 317 316 315 314 312 312 312 311 309 307
182 214 229 187 236 249 243 116 107 163 231 237 252 18 221 239 238 235 244 246 238 208 226 234 248 257 265 268 259 264 270 262 254 254 238 229 235 224 226 223 217 208 202 191 186 182 176 166 161 161 161 154 146 136 131 134 131 122 112 116 127 173 228 259 280 268 270 274 283 297 306 312 317 316 317 316 317 317 317 315 312 310 308 308 311 312
196 202 228 188 244 240 132 147 218 219 235 246 24 270 201 227 221 227 242 246 246 237 233 243 250 256 256 256 256 259 263 269 270 269 231 215 216 219 217 216 209 203 191 181 175 171 171 169 157 144 142 143 138 129 129 127 125 118 120 132 146 206 206 251 269 268 273 285 292 301 308 320 320 321 320 323 321 319 315 313 312 313 314 313 315 315
204 198 179 230 190 33 118 201 237 240 260 323 292 269 193 217 208 246 258 253 251 244 233 235 247 253 251 253 257 256 257 272 293 276 218 221 214 214 214 211 206 192 186 182 175 173 168 168 164 156 147 133 123 127 130 132 126 124 131 133 163 174 235 244 255 271 283 290 304 311 325 324 325 325 324 324 322 318 316 316 315 316 318 315 311 306
210 192 184 235 190 233 225 232 242 295 305 280 280 263 201 202 168 189 258 269 263 245 221 233 246 250 249 250 253 258 282 336 295 281 174 221 224 212 208 209 191 192 187 181 174 169 162 147 139 138 127 120 130 130 135 132 125 127 131 143 170 157 232 245 257 274 288 291 300 321 327 328 326 325 323 320 318 317 317 317 318 317 316 312 311 309
205 212 200 228 227 215 243 252 261 250 253 259 251 308 131 182 193 201 202 267 267 264 190 213 234 244 247 246 250 254 68 298 281 271 259 222 217 203 210 187 168 163 148 133 123 124 130 130 120 117 124 125 124 129 131 128 133 129 145 156 162 173 231 221 251 278 285 290 303 319 328 327 326 322 318 316 314 312 311 309 306 307 314 311 312 312
214 222 221 214 239 230 235 236 239 239 248 245 268 146 239 128 161 98 181 255 263 281 147 205 226 238 239 233 237 112 138 230 254 262 275 128 186 179 171 156 144 144 146 148 147 141 142 135 128 129 124 119 130 137 133 131 132 142 152 154 167 197 209 228 263 274 295 301 314 318 322 319 317 311 308 307 307 309 310 312 312 309 309 306 304 301
201 212 217 232 232 228 236 237 241 219 250 255 262 116 176 126 120 107 256 260 275 127 192 189 217 226 233 230 173 158 183 226 248 260 205 175 171 168 158 149 137 134 133 127 129 135 119 123 121 121 130 138 138 136 138 136 139 147 146 154 168 195 208 224 254 288 292 301 306 312 311 311 306 302 302 303 304 305 306 307 308 312 313 310 306 303
186 219 204 219 219 226 225 246 259 267 254 258 231 145 143 141 109 216 244 262 284 212 173 194 203 219 219 191 154 200 214 213 228 88 115 114 112 106 100 125 145 146 140 136 132 132 122 126 123 131 135 136 136 140 141 141 143 144 148 158 175 197 188 214 273 288 295 306 306 306 308 307 299 299 297 294 299 304 307 310 313 313 314 312 309 305
203 195 233 213 229 225 225 230 236 251 258 251 126 157 166 98 216 235 244 220 256 267 188 182 203 215 204 181 196 211 225 195 101 144 121 149 142 138 130 123 107 89 82 82 128 129 117 122 120 118 116 127 138 141 142 146 141 135 152 171 189 177 171 196 266 290 300 307 308 305 308 305 302 295 294 299 304 309 309 310 309 308 311 309 309 310
185 181 191 197 214 230 235 244 245 253 245 176 138 87 238 195 236 236 245 249 196 186 185 206 208 213 169 212 208 217 185 153 162 154 166 142 149 150 147 146 145 145 144 140 133 141 134 121 125 126 130 139 140 143 150 141 133 146 163 179 173 156 155 212 254 297 308 307 309 316 311 307 302 305 303 304 309 309 312 314 315 315 312 310 311 312
153 213 197 219 185 197 207 205 213 214 231 148 155 183 199 212 231 233 228 248 242 199 204 200 214 208 194 205 203 210 203 161 161 164 154 159 140 128 102 89 90 100 95 48 82 141 136 104 119 125 133 140 146 149 150 145 138 156 169 169 145 156 146 183 263 309 306 306 317 315 311 305 304 300 303 305 310 312 311 317 319 318 316 313 313 316
163 217 196 214 188 200 208 214 222 226 190 179 191 208 206 212 223 231 224 227 238 234 194 185 223 207 196 201 204 192 189 200 187 177 166 170 156 155 161 162 160 156 154 151 155 142 132 134 138 131 133 144 147 148 138 143 147 156 161 156 146 162 160 176 191 283 312 330 325 318 309 308 304 303 302 307 312 318 317 317 323 321 319 317 320 321
200 215 219 237 223 227 247 254 280 194 178 198 215 219 227 227 230 238 235 237 239 237 168 204 214 202 197 192 186 199 199 191 169 176 167 159 161 148 114 111 112 102 98 107 124 142 129 102 101 128 136 142 150 140 143 151 161 153 158 145 150 153 145 150 132 63 6 345 329 312 310 316 316 313 307 308 311 308 310 313 321 320 317 321 321 319
234 219 220 229 213 208 242 212 238 227 215 197 214 228 235 233 229 223 227 233 241 232 207 219 212 202 196 184 195 194 196 180 178 173 163 158 164 164 163 161 160 160 158 155 153 135 133 133 132 140 143 143 155 148 151 156 156 145 136 146 150 139 145 140 122 71 20 354 319 305 304 312 315 322 322 319 311 303 309 319 317 315 315 320 321 308
243 199 228 222 219 214 235 224 229 230 227 205 217 233 239 238 238 230 225 233 238 235 216 215 193 211 183 194 203 197 189 176 172 171 171 173 171 170 163 160 149 146 138 129 141 136 121 139 141 145 147 145 156 154 154 156 152 147 140 143 139 138 134 117 97 79 24 320 304 299 297 303 317 322 319 321 323 318 312 312 310 313 322 327 326 316
207 150 225 167 218 231 243 253 257 248 261 243 230 229 235 239 233 231 229 230 228 229 227 213 195 201 184 208 194 185 179 188 184 175 170 172 171 164 168 159 157 148 144 150 155 160 163 153 144 147 144 144 150 152 155 157 151 145 150 144 143 146 123 109 83 68 9 306 300 299 294 299 302 307 313 317 322 318 308 305 314 319 312 314 301 321
104 210 187 180 229 232 222 229 226 241 238 237 238 232 231 233 238 238 234 226 222 224 220 216 216 211 207 200 185 185 189 186 182 174 174 176 174 168 157 145 138 141 134 126 134 143 122 141 141 143 137 141 148 153 154 151 147 146 146 138 146 142 120 116 103 77 1 299 296 299 305 315 315 309 315 314 317 324 325 322 336 336 328 319 331 336
204 212 194 219 210 231 224 231 228 231 238 235 244 240 227 228 233 233 229 229 225 222 220 218 216 205 211 213 195 186 188 179 182 176 175 175 177 172 157 148 147 149 144 146 141 151 155 153 149 117 128 145 152 156 154 143 143 144 146 148 147 137 126 121 104 89 338 311 301 303 319 319 320 319 316 308 309 314 316 323 325 337 346 341 336 336